Regional Weather Roundup
Issued by NWS

Home | Current Version | Previous Version | Text Only | Print | Product List | Glossary On
Versions: 1 2 3 4 5 6 7 8 9 10 11 12 13 14 15 16 17 18 19 20 21 22 23 24 25 26 27 28
000
ASUS44 KBMX 260110
RWRAL

ALABAMA REGIONAL WEATHER ROUNDUP
NATIONAL WEATHER SERVICE BIRMINGHAM AL
700 PM CST SAT FEB 25 2017

NOTE: "FAIR" INDICATES FEW OR NO CLOUDS BELOW 12,000 FEET
WITH NO SIGNIFICANT WEATHER AND/OR OBSTRUCTIONS TO VISIBILITY.

THE REMARK "TC" DENOTES TEMPERATURE IN DEGREES CELSIUS.

ALZ001>011-014-016>018-020-260200-
NORTH ALABAMA

CITY           SKY/WX    TMP DP  RH WIND       PRES   REMARKS
MUSCLE SHOALS  CLEAR     44  21  40 NW9       30.12R
HUNTSVILLE     CLEAR     44  24  45 NW7       30.07R
DECATUR        CLEAR     43  25  49 NW8       30.09R
HALEYVILLE     FAIR      42  22  44 NW3       30.11R
GADSDEN        CLEAR     47  22  37 NW7       30.07R
$$

ALZ012-013-022-023-030>036-040>044-260200-
WEST CENTRAL ALABAMA

CITY           SKY/WX    TMP DP  RH WIND       PRES   REMARKS
TUSCALOOSA     CLEAR     49  25  39 NW3       30.11R
$$

ALZ015-024>027-033>036-040>044-260200-
CENTRAL ALABAMA

CITY           SKY/WX    TMP DP  RH WIND       PRES   REMARKS
BIRMINGHAM     CLEAR     50  22  33 NW10      30.09R
MONTGOMERY     CLEAR     54  22  28 NW8       30.06R
SHELBY CO ARPT CLEAR     51  24  34 NW10      30.07R
MAXWELL AFB    CLEAR     55  19  24 NW6       30.05R
GREENVILLE     FAIR      54  22  28 NW7       30.05R
$$

ALZ019-021-028-029-037-038-045>048-260200-
EAST CENTRAL ALABAMA

CITY           SKY/WX    TMP DP  RH WIND       PRES   REMARKS
ANNISTON       CLEAR     51  22  31 NW8       30.05R
ALEXANDER CITY CLEAR     52  20  28 NW3       30.04R
AUBURN         CLEAR     54  23  30 NW12      30.02R
$$

ALZ051>064-260200-
SOUTHWEST ALABAMA

CITY           SKY/WX    TMP DP  RH WIND       PRES   REMARKS
MOBILE         PTCLDY    59  28  30 NW6       30.08R
BROOKLEY FIELD CLEAR     59  34  39 NW8       30.08R
EVERGREEN      PTCLDY    55  31  39 N5        30.06R
$$

ALZ049-050-065>069-260200-
SOUTHEAST ALABAMA

CITY           SKY/WX    TMP DP  RH WIND       PRES   REMARKS
DOTHAN         CLEAR     60  24  25 NW14      30.03R
OZARK          CLEAR     59  26  28 NW7       30.01R
TROY           CLEAR     56  26  31 W6        30.04R
EUFAULA        FAIR      60  23  24 MISG      30.00R
$$




USA.gov is the U.S. government's official web portal to all federal, state and local government web resources and services.